Weather History for CYMX - October, 2012

Change the Weather History Date:

Wednesday, October 3, 2012

  Actual Average Record
Temperature  
Mean Temperature 56 °F -  
Max Temperature 66 °F 57 °F 77 °F (2005)
Min Temperature 46 °F 38 °F 32 °F (1996)
Degree Days  
Heating Degree Days 9    
Growing Degree Days 6 (Base 50)    
Moisture  
Dew Point 52 °F    
Average Humidity 88    
Maximum Humidity 100    
Minimum Humidity 64    
Precipitation  
Precipitation 0.00 in - - ()
Sea Level Pressure  
Sea Level Pressure 30.11 in    
Wind  
Wind Speed 4 mph ()    
Max Wind Speed 10 mph    
Max Gust Speed 20 mph    
Visibility 9.7 miles    
Events Fog    
Averages and records for this station are not official NWS values.
T = Trace of Precipitation, MM = Missing Value Source: Averaged Metar Reports

Daily Weather History Graph

Daily Weather History Graph

Search for Another Location

Airport or City:

Trip Planner

Search our weather history database for the weather conditions in past years. The results will help you decide how hot, cold, wet, or windy it might be!

Date:

Astronomy

Oct. 03, 2012 Rise Set
Actual Time 6:57 AM EDT 6:31 PM EDT
Civil Twilight 6:27 AM EDT 7:01 PM EDT
Nautical Twilight 5:53 AM EDT 7:35 PM EDT
Astronomical Twilight 5:18 AM EDT 8:10 PM EDT
Moon 8:09 PM EDT (10/3) 10:30 AM EDT (10/3)
Length of Visible Light 12h 33m
Length of Day
11h 34m
Waning Gibbous, 89% of the Moon is Illuminated
Oct 3
Waning Gibbous
Oct 8
Last Quarter
Oct 15
New
Oct 21
First Quarter
Oct 29
Full

Hourly Weather History & Observations

Time (EDT) Temp. Windchill Dew Point Humidity Pressure Visibility Wind Dir Wind Speed Gust Speed Precip Events Conditions
12:00 AM 50.0 °F - 50.0 °F 100% 30.07 in 25.0 mi Calm Calm - N/A Fog Patches of Fog
1:00 AM 48.2 °F - 48.2 °F 100% 30.07 in 25.0 mi Calm Calm - N/A Fog Patches of Fog
2:00 AM 48.2 °F - 48.2 °F 100% 30.08 in 25.0 mi NNE 4.6 mph - N/A Fog Patches of Fog
3:00 AM 48.2 °F - 48.2 °F 100% 30.07 in 15.0 mi NNE 3.5 mph - N/A Fog Patches of Fog
4:00 AM 50.0 °F - 48.2 °F 94% 30.08 in 15.0 mi NNE 6.9 mph - N/A Fog Patches of Fog
5:00 AM 48.2 °F - 48.2 °F 100% 30.08 in 15.0 mi NE 3.5 mph - N/A Fog Patches of Fog
6:00 AM 46.4 °F 45.2 °F 46.4 °F 100% 30.09 in 20.0 mi NE 3.5 mph - N/A Fog Patches of Fog
7:00 AM 46.4 °F 45.2 °F 46.4 °F 100% 30.11 in 10.0 mi NE 3.5 mph - N/A Fog Patches of Fog
7:19 AM 48.2 °F - 46.4 °F 93% 30.12 in 3.0 mi NE 4.6 mph - N/A   Mostly Cloudy
7:41 AM 48.2 °F - 48.2 °F 100% 30.12 in 0.5 mi NNE 3.5 mph - N/A Fog Fog
8:00 AM 50.0 °F - 50.0 °F 100% 30.13 in 0.8 mi NE 5.8 mph - N/A   Overcast
8:26 AM 51.8 °F - 51.8 °F 100% 30.13 in 3.0 mi NE 4.6 mph - N/A   Overcast
8:42 AM 51.8 °F - 51.8 °F 100% 30.14 in 3.0 mi NE 4.6 mph - N/A   Overcast
9:00 AM 51.8 °F - 51.8 °F 100% 30.14 in 3.0 mi ENE 9.2 mph - N/A   Overcast
9:18 AM 51.8 °F - 51.8 °F 100% 30.14 in 6.0 mi ENE 6.9 mph - N/A   Mostly Cloudy
10:00 AM 55.4 °F - 53.6 °F 94% 30.15 in 10.0 mi ENE 5.8 mph - N/A   Mostly Cloudy
11:00 AM 59.0 °F - 55.4 °F 88% 30.13 in 10.0 mi NE 9.2 mph - N/A   Mostly Cloudy
12:00 PM 62.6 °F - 55.4 °F 77% 30.12 in 15.0 mi NE 8.1 mph - N/A   Mostly Cloudy
1:00 PM 64.4 °F - 57.2 °F 77% 30.10 in 15.0 mi ENE 9.2 mph 19.6 mph N/A   Mostly Cloudy
2:00 PM 66.2 °F - 55.4 °F 68% 30.10 in 15.0 mi ENE 9.2 mph - N/A   Mostly Cloudy
3:00 PM 66.2 °F - 55.4 °F 68% 30.09 in 25.0 mi East 10.4 mph - N/A   Mostly Cloudy
4:00 PM 66.2 °F - 53.6 °F 64% 30.10 in 25.0 mi ENE 6.9 mph - N/A   Mostly Cloudy
5:00 PM 66.2 °F - 57.2 °F 73% 30.11 in 25.0 mi East 5.8 mph - N/A   Overcast
6:00 PM 64.4 °F - 55.4 °F 73% 30.12 in 25.0 mi ENE 3.5 mph - N/A   Overcast
7:00 PM 62.6 °F - 55.4 °F 77% 30.13 in 25.0 mi East 4.6 mph - N/A   Overcast
8:00 PM 62.6 °F - 55.4 °F 77% 30.13 in 25.0 mi ENE 4.6 mph - N/A   Overcast
9:00 PM 62.6 °F - 55.4 °F 77% 30.13 in 25.0 mi ENE 3.5 mph - N/A   Overcast
10:00 PM 62.6 °F - 57.2 °F 82% 30.13 in 25.0 mi ENE 3.5 mph - N/A   Mostly Cloudy
11:00 PM 62.6 °F - 55.4 °F 77% 30.14 in 15.0 mi ENE 3.5 mph - N/A   Mostly Cloudy